Time,TemperatureF,DewpointF,PressureIn,WindDirection,WindDirectionDegrees,WindSpeedMPH,WindSpeedGustMPH,Humidity,HourlyPrecipIn,Conditions,Clouds,dailyrainin,SoftwareType,DateUTC
2013-09-18 00:22:00,59.0,-99.9,-100.00,North,-999,-999.0,-999.0,-999,0.00,,,0.07,,2013-09-18 06:22:00,
2013-09-18 00:33:00,59.0,-99.9,-100.00,North,-999,-999.0,-999.0,-999,0.00,,,0.07,,2013-09-18 06:33:00,
2013-09-18 00:42:00,59.0,-99.9,-100.00,North,-999,-999.0,-999.0,-999,0.00,,,0.07,,2013-09-18 06:42:00,
2013-09-18 01:12:00,58.0,-99.9,-100.00,North,-999,-999.0,-999.0,-999,0.00,,,0.01,,2013-09-18 07:12:00,
2013-09-18 01:22:00,58.0,-99.9,-100.00,North,-999,-999.0,-999.0,-999,0.00,,,0.01,,2013-09-18 07:22:00,
2013-09-18 01:32:00,58.0,-99.9,-100.00,North,-999,-999.0,-999.0,-999,0.00,,,0.01,,2013-09-18 07:32:00,
2013-09-18 01:42:00,58.0,-99.9,-100.00,North,-999,-999.0,-999.0,-999,0.00,,,0.01,,2013-09-18 07:42:00,
2013-09-18 02:12:00,56.0,-99.9,-100.00,North,-999,-999.0,-999.0,-999,0.00,,,-99.99,,2013-09-18 08:12:00,
2013-09-18 02:23:00,56.0,-99.9,-100.00,North,-999,-999.0,-999.0,-999,0.00,,,-99.99,,2013-09-18 08:23:00,
2013-09-18 02:32:00,56.0,-99.9,-100.00,North,-999,-999.0,-999.0,-999,0.00,,,-99.99,,2013-09-18 08:32:00,
2013-09-18 02:42:00,56.0,-99.9,-100.00,North,-999,-999.0,-999.0,-999,0.00,,,-99.99,,2013-09-18 08:42:00,
2013-09-18 04:13:00,50.0,-99.9,-100.00,North,-999,-999.0,-999.0,-999,-99.99,,,0.03,,2013-09-18 10:13:00,
2013-09-18 04:23:00,50.0,-99.9,-100.00,North,-999,-999.0,-999.0,-999,-99.99,,,0.03,,2013-09-18 10:23:00,
2013-09-18 04:34:00,50.0,-99.9,-100.00,North,-999,-999.0,-999.0,-999,-99.99,,,0.03,,2013-09-18 10:34:00,
2013-09-18 04:43:00,50.0,-99.9,-100.00,North,-999,-999.0,-999.0,-999,-99.99,,,0.03,,2013-09-18 10:43:00,
2013-09-18 05:12:00,50.0,-99.9,-100.00,North,-999,-999.0,-999.0,-999,0.01,,,-99.99,,2013-09-18 11:12:00,
2013-09-18 05:22:00,50.0,-99.9,-100.00,North,-999,-999.0,-999.0,-999,0.01,,,-99.99,,2013-09-18 11:22:00,
2013-09-18 05:33:00,50.0,-99.9,-100.00,North,-999,-999.0,-999.0,-999,0.01,,,-99.99,,2013-09-18 11:33:00,
2013-09-18 05:42:00,50.0,-99.9,-100.00,North,-999,-999.0,-999.0,-999,0.01,,,-99.99,,2013-09-18 11:42:00,
2013-09-18 06:12:00,50.0,-99.9,-100.00,North,-999,-999.0,-999.0,-999,0.01,,,0.05,,2013-09-18 12:12:00,
2013-09-18 06:22:00,50.0,-99.9,-100.00,North,-999,-999.0,-999.0,-999,0.01,,,0.05,,2013-09-18 12:22:00,
2013-09-18 06:32:00,50.0,-99.9,-100.00,North,-999,-999.0,-999.0,-999,0.01,,,0.05,,2013-09-18 12:32:00,
2013-09-18 06:43:00,50.0,-99.9,-100.00,North,-999,-999.0,-999.0,-999,0.01,,,0.05,,2013-09-18 12:43:00,
2013-09-18 20:45:00,52.0,-99.9,-100.00,North,-999,-999.0,-999.0,-999,0.00,,,0.07,,2013-09-19 02:45:00,
2013-09-18 22:14:00,49.0,-99.9,-100.00,North,-999,-999.0,-999.0,-999,0.00,,,0.07,,2013-09-19 04:14:00,
2013-09-18 22:25:00,49.0,-99.9,-100.00,North,-999,-999.0,-999.0,-999,0.00,,,0.07,,2013-09-19 04:25:00,
2013-09-18 22:34:00,49.0,-99.9,-100.00,North,-999,-999.0,-999.0,-999,0.00,,,0.07,,2013-09-19 04:34:00,
2013-09-18 22:44:00,49.0,-99.9,-100.00,North,-999,-999.0,-999.0,-999,0.00,,,0.07,,2013-09-19 04:44:00,